Time,TemperatureF,DewpointF,PressureIn,WindDirection,WindDirectionDegrees,WindSpeedMPH,WindSpeedGustMPH,Humidity,HourlyPrecipIn,Conditions,Clouds,dailyrainin,SoftwareType,DateUTC
2014-01-18 00:04:00,47.9,30.2,30.12,North,0,0.0,0.0,50,0.00,,,0.00,VWS V13.01,2014-01-18 06:04:00,
2014-01-18 00:09:00,47.7,30.5,30.12,North,0,0.0,0.0,51,0.00,,,0.00,VWS V13.01,2014-01-18 06:09:00,
2014-01-18 00:14:00,47.6,30.3,30.12,North,0,0.0,0.0,51,0.00,,,0.00,VWS V13.01,2014-01-18 06:14:00,
2014-01-18 00:19:00,47.6,30.8,30.12,North,0,0.0,0.0,52,0.00,,,0.00,VWS V13.01,2014-01-18 06:19:00,
2014-01-18 00:24:00,47.4,31.1,30.12,North,0,0.0,0.0,53,0.00,,,0.00,VWS V13.01,2014-01-18 06:24:00,
2014-01-18 00:29:00,47.4,31.1,30.12,North,0,0.0,0.0,53,0.00,,,0.00,VWS V13.01,2014-01-18 06:29:00,
2014-01-18 00:34:00,47.2,31.9,30.12,North,0,0.0,0.0,55,0.00,,,0.00,VWS V13.01,2014-01-18 06:34:00,
2014-01-18 00:39:00,47.2,32.3,30.12,North,0,0.0,0.0,56,0.00,,,0.00,VWS V13.01,2014-01-18 06:39:00,
2014-01-18 00:44:00,47.2,32.8,30.12,North,0,0.0,0.0,57,0.00,,,0.00,VWS V13.01,2014-01-18 06:44:00,
2014-01-18 00:49:00,47.2,33.2,30.12,North,0,0.0,0.0,58,0.00,,,0.00,VWS V13.01,2014-01-18 06:49:00,
2014-01-18 00:54:00,47.2,33.6,30.12,North,0,0.0,0.0,59,0.00,,,0.00,VWS V13.01,2014-01-18 06:54:00,
2014-01-18 00:59:00,47.2,33.6,30.12,North,0,0.0,0.0,59,0.00,,,0.00,VWS V13.01,2014-01-18 06:59:00,
2014-01-18 01:04:00,47.2,34.0,30.12,North,0,0.0,0.0,60,0.00,,,0.00,VWS V13.01,2014-01-18 07:04:00,
2014-01-18 01:09:00,47.2,34.0,30.12,North,0,0.0,0.0,60,0.00,,,0.00,VWS V13.01,2014-01-18 07:09:00,
2014-01-18 01:14:00,47.2,34.0,30.12,North,0,0.0,0.0,60,0.00,,,0.00,VWS V13.01,2014-01-18 07:14:00,
2014-01-18 01:19:00,47.2,34.5,30.12,North,0,0.0,0.0,61,0.00,,,0.00,VWS V13.01,2014-01-18 07:19:00,
2014-01-18 01:25:00,47.2,34.5,30.12,North,0,0.0,0.0,61,0.00,,,0.00,VWS V13.01,2014-01-18 07:25:00,
2014-01-18 01:30:00,47.2,34.5,30.12,North,0,0.0,0.0,61,0.00,,,0.00,VWS V13.01,2014-01-18 07:30:00,
2014-01-18 01:35:00,47.2,34.5,30.12,North,0,0.0,0.0,61,0.00,,,0.00,VWS V13.01,2014-01-18 07:35:00,
2014-01-18 01:40:00,47.0,34.7,30.12,North,0,0.0,0.0,62,0.00,,,0.00,VWS V13.01,2014-01-18 07:40:00,
2014-01-18 01:45:00,47.0,34.7,30.12,North,0,0.0,0.0,62,0.00,,,0.00,VWS V13.01,2014-01-18 07:45:00,
2014-01-18 01:50:00,46.8,34.5,30.12,North,0,0.0,0.0,62,0.00,,,0.00,VWS V13.01,2014-01-18 07:50:00,
2014-01-18 01:55:00,46.7,33.9,30.12,North,0,0.0,0.0,61,0.00,,,0.00,VWS V13.01,2014-01-18 07:55:00,
2014-01-18 02:00:00,46.7,33.9,30.12,North,0,0.0,0.0,61,0.00,,,0.00,VWS V13.01,2014-01-18 08:00:00,
2014-01-18 02:05:00,46.5,33.8,30.12,North,0,0.0,0.0,61,0.00,,,0.00,VWS V13.01,2014-01-18 08:05:00,
2014-01-18 02:10:00,46.5,33.8,30.12,North,0,0.0,0.0,61,0.00,,,0.00,VWS V13.01,2014-01-18 08:10:00,
2014-01-18 02:15:00,46.3,33.6,30.12,North,0,0.0,0.0,61,0.00,,,0.00,VWS V13.01,2014-01-18 08:15:00,
2014-01-18 02:20:00,46.3,33.2,30.12,North,0,0.0,0.0,60,0.00,,,0.00,VWS V13.01,2014-01-18 08:20:00,
2014-01-18 02:25:00,46.3,33.6,30.12,North,0,0.0,0.0,61,0.00,,,0.00,VWS V13.01,2014-01-18 08:25:00,
2014-01-18 02:30:00,46.1,33.4,30.12,North,0,0.0,0.0,61,0.00,,,0.00,VWS V13.01,2014-01-18 08:30:00,
2014-01-18 02:35:00,46.1,33.4,30.12,North,0,0.0,0.0,61,0.00,,,0.00,VWS V13.01,2014-01-18 08:35:00,
2014-01-18 02:40:00,46.1,33.8,30.12,North,0,0.0,0.0,62,0.00,,,0.00,VWS V13.01,2014-01-18 08:40:00,
2014-01-18 02:45:00,45.9,33.7,30.12,North,0,0.0,0.0,62,0.00,,,0.00,VWS V13.01,2014-01-18 08:45:00,
2014-01-18 02:50:00,45.9,34.1,30.12,North,0,0.0,0.0,63,0.00,,,0.00,VWS V13.01,2014-01-18 08:50:00,
2014-01-18 02:55:00,45.8,33.9,30.12,North,0,0.0,0.0,63,0.00,,,0.00,VWS V13.01,2014-01-18 08:55:00,
2014-01-18 03:00:00,45.8,33.9,30.12,North,0,0.0,0.0,63,0.00,,,0.00,VWS V13.01,2014-01-18 09:00:00,
2014-01-18 03:05:00,45.6,33.7,30.12,North,0,0.0,0.0,63,0.00,,,0.00,VWS V13.01,2014-01-18 09:05:00,
2014-01-18 03:10:00,45.6,33.7,30.12,North,0,0.0,0.0,63,0.00,,,0.00,VWS V13.01,2014-01-18 09:10:00,
2014-01-18 03:15:00,45.4,33.6,30.12,North,0,0.0,0.0,63,0.00,,,0.00,VWS V13.01,2014-01-18 09:15:00,
2014-01-18 03:20:00,45.4,33.6,30.12,North,0,0.0,0.0,63,0.00,,,0.00,VWS V13.01,2014-01-18 09:20:00,
2014-01-18 03:25:00,45.4,33.6,30.12,North,0,0.0,0.0,63,0.00,,,0.00,VWS V13.01,2014-01-18 09:25:00,
2014-01-18 03:30:00,45.4,33.6,30.12,North,0,0.0,0.0,63,0.00,,,0.00,VWS V13.01,2014-01-18 09:30:00,
2014-01-18 03:35:00,45.2,33.8,30.12,North,0,0.0,0.0,64,0.00,,,0.00,VWS V13.01,2014-01-18 09:35:00,
2014-01-18 03:40:00,45.2,33.4,30.12,North,0,0.0,0.0,63,0.00,,,0.00,VWS V13.01,2014-01-18 09:40:00,
2014-01-18 03:45:00,45.2,33.8,30.12,North,0,0.0,0.0,64,0.00,,,0.00,VWS V13.01,2014-01-18 09:45:00,
2014-01-18 03:50:00,45.4,34.0,30.12,North,0,0.0,0.0,64,0.00,,,0.00,VWS V13.01,2014-01-18 09:50:00,
2014-01-18 03:55:00,45.8,34.3,30.12,North,0,0.0,0.0,64,0.00,,,0.00,VWS V13.01,2014-01-18 09:55:00,
2014-01-18 04:00:00,46.1,33.8,30.12,North,0,0.0,0.0,62,0.00,,,0.00,VWS V13.01,2014-01-18 10:00:00,
2014-01-18 04:05:00,46.3,33.2,30.12,North,0,0.0,0.0,60,0.00,,,0.00,VWS V13.01,2014-01-18 10:05:00,
2014-01-18 04:10:00,46.5,32.1,30.12,North,0,0.0,0.0,57,0.00,,,0.00,VWS V13.01,2014-01-18 10:10:00,
2014-01-18 04:15:00,46.7,30.9,30.12,North,0,0.0,0.0,54,0.00,,,0.00,VWS V13.01,2014-01-18 10:15:00,
2014-01-18 04:20:00,46.8,29.7,30.12,North,0,0.0,0.0,51,0.00,,,0.00,VWS V13.01,2014-01-18 10:20:00,
2014-01-18 04:25:00,47.0,29.4,30.12,North,0,0.0,0.0,50,0.00,,,0.00,VWS V13.01,2014-01-18 10:25:00,
2014-01-18 04:30:00,47.0,29.4,30.12,North,0,0.0,0.0,50,0.00,,,0.00,VWS V13.01,2014-01-18 10:30:00,
2014-01-18 04:35:00,46.8,28.7,30.12,North,0,0.0,0.0,49,0.00,,,0.00,VWS V13.01,2014-01-18 10:35:00,
2014-01-18 04:40:00,46.8,28.7,30.12,North,0,0.0,0.0,49,0.00,,,0.00,VWS V13.01,2014-01-18 10:40:00,
2014-01-18 04:45:00,46.8,28.7,30.12,North,0,0.0,0.0,49,0.00,,,0.00,VWS V13.01,2014-01-18 10:45:00,
2014-01-18 04:50:00,46.7,28.5,30.12,North,0,0.0,0.0,49,0.00,,,0.00,VWS V13.01,2014-01-18 10:50:00,
2014-01-18 04:56:00,46.8,28.7,30.12,North,0,0.0,0.0,49,0.00,,,0.00,VWS V13.01,2014-01-18 10:56:00,
2014-01-18 05:01:00,46.8,28.7,30.12,North,0,0.0,0.0,49,0.00,,,0.00,VWS V13.01,2014-01-18 11:01:00,
2014-01-18 05:06:00,46.8,28.7,30.09,North,0,0.0,0.0,49,0.00,,,0.00,VWS V13.01,2014-01-18 11:06:00,
2014-01-18 05:11:00,46.7,28.5,30.09,North,0,0.0,0.0,49,0.00,,,0.00,VWS V13.01,2014-01-18 11:11:00,
2014-01-18 05:16:00,46.7,28.5,30.09,North,0,0.0,0.0,49,0.00,,,0.00,VWS V13.01,2014-01-18 11:16:00,
2014-01-18 05:21:00,46.5,28.4,30.12,North,0,0.0,0.0,49,0.00,,,0.00,VWS V13.01,2014-01-18 11:21:00,
2014-01-18 05:26:00,46.3,28.2,30.12,North,0,0.0,0.0,49,0.00,,,0.00,VWS V13.01,2014-01-18 11:26:00,
2014-01-18 05:31:00,46.3,28.2,30.12,North,0,0.0,0.0,49,0.00,,,0.00,VWS V13.01,2014-01-18 11:31:00,
2014-01-18 05:36:00,46.3,28.2,30.12,North,0,0.0,0.0,49,0.00,,,0.00,VWS V13.01,2014-01-18 11:36:00,
2014-01-18 05:41:00,46.3,28.7,30.12,North,0,0.0,0.0,50,0.00,,,0.00,VWS V13.01,2014-01-18 11:41:00,
2014-01-18 05:46:00,46.1,28.5,30.12,North,0,0.0,0.0,50,0.00,,,0.00,VWS V13.01,2014-01-18 11:46:00,
2014-01-18 05:51:00,45.9,28.4,30.12,North,0,0.0,0.0,50,0.00,,,0.00,VWS V13.01,2014-01-18 11:51:00,
2014-01-18 05:56:00,45.8,28.2,30.12,North,0,0.0,0.0,50,0.00,,,0.00,VWS V13.01,2014-01-18 11:56:00,
2014-01-18 06:01:00,45.6,28.0,30.12,North,0,0.0,0.0,50,0.00,,,0.00,VWS V13.01,2014-01-18 12:01:00,
2014-01-18 06:06:00,45.4,28.4,30.12,North,0,0.0,0.0,51,0.00,,,0.00,VWS V13.01,2014-01-18 12:06:00,
2014-01-18 06:11:00,45.2,28.2,30.12,North,0,0.0,0.0,51,0.00,,,0.00,VWS V13.01,2014-01-18 12:11:00,
2014-01-18 06:16:00,45.2,28.2,30.12,North,0,0.0,0.0,51,0.00,,,0.00,VWS V13.01,2014-01-18 12:16:00,
2014-01-18 06:21:00,45.4,28.4,30.12,North,0,0.0,0.0,51,0.00,,,0.00,VWS V13.01,2014-01-18 12:21:00,
2014-01-18 06:26:00,45.6,28.5,30.12,North,0,0.0,0.0,51,0.00,,,0.00,VWS V13.01,2014-01-18 12:26:00,
2014-01-18 06:31:00,45.6,28.5,30.12,North,0,0.0,0.0,51,0.00,,,0.00,VWS V13.01,2014-01-18 12:31:00,
2014-01-18 06:36:00,45.6,28.0,30.12,North,0,0.0,0.0,50,0.00,,,0.00,VWS V13.01,2014-01-18 12:36:00,
2014-01-18 06:41:00,45.6,28.0,30.12,North,0,0.0,0.0,50,0.00,,,0.00,VWS V13.01,2014-01-18 12:41:00,
2014-01-18 06:46:00,45.8,28.7,30.12,North,0,0.0,0.0,51,0.00,,,0.00,VWS V13.01,2014-01-18 12:46:00,
2014-01-18 06:51:00,45.8,29.1,30.09,North,0,0.0,0.0,52,0.00,,,0.00,VWS V13.01,2014-01-18 12:51:00,
2014-01-18 06:56:00,45.4,28.8,30.09,North,0,0.0,0.0,52,0.00,,,0.00,VWS V13.01,2014-01-18 12:56:00,
2014-01-18 07:01:00,45.4,28.8,30.09,North,0,0.0,0.0,52,0.00,,,0.00,VWS V13.01,2014-01-18 13:01:00,
2014-01-18 07:06:00,45.4,28.8,30.09,North,0,0.0,0.0,52,0.00,,,0.00,VWS V13.01,2014-01-18 13:06:00,
2014-01-18 07:11:00,45.4,28.8,30.09,North,0,0.0,0.0,52,0.00,,,0.00,VWS V13.01,2014-01-18 13:11:00,
2014-01-18 07:16:00,45.6,29.0,30.09,North,0,0.0,0.0,52,0.00,,,0.00,VWS V13.01,2014-01-18 13:16:00,
2014-01-18 07:21:00,45.6,28.5,30.12,North,0,0.0,0.0,51,0.00,,,0.00,VWS V13.01,2014-01-18 13:21:00,
2014-01-18 07:26:00,45.6,28.0,30.12,North,0,0.0,0.0,50,0.00,,,0.00,VWS V13.01,2014-01-18 13:26:00,
2014-01-18 07:31:00,45.8,28.2,30.12,North,0,0.0,0.0,50,0.00,,,0.00,VWS V13.01,2014-01-18 13:31:00,
2014-01-18 07:36:00,45.8,28.2,30.12,North,0,0.0,0.0,50,0.00,,,0.00,VWS V13.01,2014-01-18 13:36:00,
2014-01-18 07:41:00,45.8,28.2,30.12,North,0,0.0,0.0,50,0.00,,,0.00,VWS V13.01,2014-01-18 13:41:00,
2014-01-18 07:46:00,45.9,28.4,30.12,North,0,0.0,0.0,50,0.00,,,0.00,VWS V13.01,2014-01-18 13:46:00,
2014-01-18 07:51:00,46.1,29.0,30.12,North,0,0.0,0.0,51,0.00,,,0.00,VWS V13.01,2014-01-18 13:51:00,
2014-01-18 07:56:00,46.5,29.4,30.12,North,0,0.0,0.0,51,0.00,,,0.00,VWS V13.01,2014-01-18 13:56:00,
2014-01-18 08:01:00,46.5,28.9,30.12,North,0,0.0,0.0,50,0.00,,,0.00,VWS V13.01,2014-01-18 14:01:00,
2014-01-18 08:06:00,46.7,29.0,30.12,North,0,0.0,0.0,50,0.00,,,0.00,VWS V13.01,2014-01-18 14:06:00,
2014-01-18 08:11:00,47.0,29.4,30.12,North,0,0.0,0.0,50,0.00,,,0.00,VWS V13.01,2014-01-18 14:11:00,
2014-01-18 08:16:00,47.2,29.0,30.12,North,0,0.0,0.0,49,0.00,,,0.00,VWS V13.01,2014-01-18 14:16:00,
2014-01-18 08:21:00,47.6,29.4,30.12,North,0,0.0,0.0,49,0.00,,,0.00,VWS V13.01,2014-01-18 14:21:00,
2014-01-18 08:26:00,47.7,29.5,30.12,North,0,0.0,0.0,49,0.00,,,0.00,VWS V13.01,2014-01-18 14:26:00,
2014-01-18 08:31:00,48.1,29.4,30.12,North,0,0.0,0.0,48,0.00,,,0.00,VWS V13.01,2014-01-18 14:31:00,
2014-01-18 08:36:00,48.3,29.5,30.12,North,0,0.0,0.0,48,0.00,,,0.00,VWS V13.01,2014-01-18 14:36:00,
2014-01-18 08:41:00,48.6,29.9,30.12,North,0,0.0,0.0,48,0.00,,,0.00,VWS V13.01,2014-01-18 14:41:00,
2014-01-18 08:46:00,49.2,29.8,30.12,North,0,0.0,0.0,47,0.00,,,0.00,VWS V13.01,2014-01-18 14:46:00,
2014-01-18 08:51:00,49.5,30.2,30.12,North,0,0.0,0.0,47,0.00,,,0.00,VWS V13.01,2014-01-18 14:51:00,
2014-01-18 08:56:00,50.1,30.6,30.12,North,0,0.0,0.0,47,0.00,,,0.00,VWS V13.01,2014-01-18 14:56:00,
2014-01-18 09:01:00,50.6,30.6,30.12,North,0,0.0,0.0,46,0.00,,,0.00,VWS V13.01,2014-01-18 15:01:00,
2014-01-18 09:06:00,51.0,29.9,30.12,North,0,0.0,0.0,44,0.00,,,0.00,VWS V13.01,2014-01-18 15:06:00,
2014-01-18 09:12:00,51.3,29.6,30.12,North,0,0.0,0.0,43,0.00,,,0.00,VWS V13.01,2014-01-18 15:12:00,
2014-01-18 09:17:00,51.7,29.4,30.12,North,0,0.0,0.0,42,0.00,,,0.00,VWS V13.01,2014-01-18 15:17:00,
2014-01-18 09:22:00,52.1,29.7,30.12,North,0,0.0,0.0,42,0.00,,,0.00,VWS V13.01,2014-01-18 15:22:00,
2014-01-18 09:27:00,52.4,29.4,30.12,North,0,0.0,0.0,41,0.00,,,0.00,VWS V13.01,2014-01-18 15:27:00,
2014-01-18 09:32:00,52.8,29.8,30.12,North,0,0.0,0.0,41,0.00,,,0.00,VWS V13.01,2014-01-18 15:32:00,
2014-01-18 09:37:00,53.3,30.2,30.15,North,0,0.0,0.0,41,0.00,,,0.00,VWS V13.01,2014-01-18 15:37:00,
2014-01-18 09:42:00,53.5,30.4,30.15,North,0,0.0,0.0,41,0.00,,,0.00,VWS V13.01,2014-01-18 15:42:00,
2014-01-18 09:47:00,53.7,30.0,30.15,North,0,0.0,0.0,40,0.00,,,0.00,VWS V13.01,2014-01-18 15:47:00,
2014-01-18 09:52:00,54.0,30.3,30.15,North,0,0.0,0.0,40,0.00,,,0.00,VWS V13.01,2014-01-18 15:52:00,
2014-01-18 09:57:00,54.4,30.0,30.15,North,0,0.0,0.0,39,0.00,,,0.00,VWS V13.01,2014-01-18 15:57:00,
2014-01-18 10:02:00,54.8,30.3,30.15,North,0,0.0,0.0,39,0.00,,,0.00,VWS V13.01,2014-01-18 16:02:00,
2014-01-18 10:07:00,54.9,29.8,30.15,North,0,0.0,0.0,38,0.00,,,0.00,VWS V13.01,2014-01-18 16:07:00,
2014-01-18 10:12:00,55.3,30.1,30.15,North,0,0.0,0.0,38,0.00,,,0.00,VWS V13.01,2014-01-18 16:12:00,
2014-01-18 10:17:00,55.7,31.1,30.15,North,0,0.0,0.0,39,0.00,,,0.00,VWS V13.01,2014-01-18 16:17:00,
2014-01-18 10:22:00,56.0,31.4,30.15,North,0,0.0,0.0,39,0.00,,,0.00,VWS V13.01,2014-01-18 16:22:00,
2014-01-18 10:27:00,56.4,31.1,30.15,North,0,0.0,0.0,38,0.00,,,0.00,VWS V13.01,2014-01-18 16:27:00,
2014-01-18 10:32:00,56.6,31.3,30.18,North,0,0.0,0.0,38,0.00,,,0.00,VWS V13.01,2014-01-18 16:32:00,
2014-01-18 10:37:00,56.9,31.6,30.18,North,0,0.0,0.0,38,0.00,,,0.00,VWS V13.01,2014-01-18 16:37:00,
2014-01-18 10:42:00,57.1,31.8,30.18,North,0,0.0,0.0,38,0.00,,,0.00,VWS V13.01,2014-01-18 16:42:00,
2014-01-18 10:47:00,57.3,31.9,30.18,North,0,0.0,0.0,38,0.00,,,0.00,VWS V13.01,2014-01-18 16:47:00,
2014-01-18 10:52:00,57.8,32.4,30.18,North,0,0.0,0.0,38,0.00,,,0.00,VWS V13.01,2014-01-18 16:52:00,
2014-01-18 10:57:00,58.2,32.7,30.18,North,0,0.0,0.0,38,0.00,,,0.00,VWS V13.01,2014-01-18 16:57:00,
2014-01-18 11:02:00,58.5,32.4,30.18,North,0,0.0,0.0,37,0.00,,,0.00,VWS V13.01,2014-01-18 17:02:00,
2014-01-18 11:07:00,58.7,32.5,30.18,North,0,0.0,0.0,37,0.00,,,0.00,VWS V13.01,2014-01-18 17:07:00,
2014-01-18 11:12:00,59.1,32.9,30.18,North,0,0.0,0.0,37,0.00,,,0.00,VWS V13.01,2014-01-18 17:12:00,
2014-01-18 11:15:00,59.3,33.0,30.18,North,0,0.0,0.0,37,0.00,,,0.00,VWS V13.01,2014-01-18 17:15:00,
2014-01-18 11:20:00,59.8,33.5,30.18,North,0,0.0,0.0,37,0.00,,,0.00,VWS V13.01,2014-01-18 17:20:00,
2014-01-18 11:25:00,60.2,33.8,30.18,North,0,0.0,0.0,37,0.00,,,0.00,VWS V13.01,2014-01-18 17:25:00,
2014-01-18 11:30:00,60.5,34.1,30.18,North,0,0.0,0.0,37,0.00,,,0.00,VWS V13.01,2014-01-18 17:30:00,
2014-01-18 11:35:00,60.9,34.5,30.18,North,0,0.0,0.0,37,0.00,,,0.00,VWS V13.01,2014-01-18 17:35:00,
2014-01-18 11:40:00,61.1,34.6,30.18,North,0,0.0,0.0,37,0.00,,,0.00,VWS V13.01,2014-01-18 17:40:00,
2014-01-18 11:46:00,61.6,35.8,30.18,North,0,0.0,0.0,38,0.00,,,0.00,VWS V13.01,2014-01-18 17:46:00,
2014-01-18 11:51:00,62.0,36.1,30.15,North,0,0.0,0.0,38,0.00,,,0.00,VWS V13.01,2014-01-18 17:51:00,
2014-01-18 11:56:00,62.1,36.2,30.15,North,0,0.0,0.0,38,0.00,,,0.00,VWS V13.01,2014-01-18 17:56:00,
2014-01-18 12:01:00,62.3,36.4,30.15,North,0,0.0,0.0,38,0.00,,,0.00,VWS V13.01,2014-01-18 18:01:00,
2014-01-18 12:06:00,62.5,37.2,30.15,North,0,0.0,0.0,39,0.00,,,0.00,VWS V13.01,2014-01-18 18:06:00,
2014-01-18 12:11:00,62.7,38.0,30.15,North,0,0.0,0.0,40,0.00,,,0.00,VWS V13.01,2014-01-18 18:11:00,
2014-01-18 12:16:00,63.0,39.0,30.15,North,0,0.0,0.0,41,0.00,,,0.00,VWS V13.01,2014-01-18 18:16:00,
2014-01-18 12:21:00,63.2,39.2,30.15,North,0,0.0,0.0,41,0.00,,,0.00,VWS V13.01,2014-01-18 18:21:00,
2014-01-18 12:26:00,63.2,39.2,30.15,North,0,0.0,0.0,41,0.00,,,0.00,VWS V13.01,2014-01-18 18:26:00,
2014-01-18 12:31:00,63.0,39.6,30.15,North,0,0.0,0.0,42,0.00,,,0.00,VWS V13.01,2014-01-18 18:31:00,
2014-01-18 12:36:00,63.2,40.4,30.15,North,0,0.0,0.0,43,0.00,,,0.00,VWS V13.01,2014-01-18 18:36:00,
2014-01-18 12:41:00,63.2,40.4,30.15,North,0,0.0,0.0,43,0.00,,,0.00,VWS V13.01,2014-01-18 18:41:00,
2014-01-18 12:46:00,63.4,40.5,30.15,North,0,0.0,0.0,43,0.00,,,0.00,VWS V13.01,2014-01-18 18:46:00,
2014-01-18 12:51:00,63.8,40.9,30.15,North,0,0.0,0.0,43,0.00,,,0.00,VWS V13.01,2014-01-18 18:51:00,
2014-01-18 12:56:00,64.3,41.3,30.15,North,0,0.0,0.0,43,0.00,,,0.00,VWS V13.01,2014-01-18 18:56:00,
2014-01-18 13:01:00,64.5,41.5,30.15,North,0,0.0,0.0,43,0.00,,,0.00,VWS V13.01,2014-01-18 19:01:00,
2014-01-18 13:06:00,64.5,41.5,30.12,North,0,0.0,0.0,43,0.00,,,0.00,VWS V13.01,2014-01-18 19:06:00,
2014-01-18 13:11:00,64.7,41.7,30.12,North,0,0.0,0.0,43,0.00,,,0.00,VWS V13.01,2014-01-18 19:11:00,
2014-01-18 13:16:00,64.8,41.8,30.12,North,0,0.0,0.0,43,0.00,,,0.00,VWS V13.01,2014-01-18 19:16:00,
2014-01-18 13:21:00,64.8,41.8,30.12,North,0,0.0,0.0,43,0.00,,,0.00,VWS V13.01,2014-01-18 19:21:00,
2014-01-18 13:26:00,65.0,41.4,30.12,North,0,0.0,0.0,42,0.00,,,0.00,VWS V13.01,2014-01-18 19:26:00,
2014-01-18 13:31:00,65.2,41.5,30.12,North,0,0.0,0.0,42,0.00,,,0.00,VWS V13.01,2014-01-18 19:31:00,
2014-01-18 13:36:00,65.6,41.2,30.12,North,0,0.0,0.0,41,0.00,,,0.00,VWS V13.01,2014-01-18 19:36:00,
2014-01-18 13:41:00,65.7,42.0,30.12,North,0,0.0,0.0,42,0.00,,,0.00,VWS V13.01,2014-01-18 19:41:00,
2014-01-18 13:46:00,66.1,42.4,30.12,North,0,0.0,0.0,42,0.00,,,0.00,VWS V13.01,2014-01-18 19:46:00,
2014-01-18 13:51:00,66.3,41.9,30.12,North,0,0.0,0.0,41,0.00,,,0.00,VWS V13.01,2014-01-18 19:51:00,
2014-01-18 13:56:00,66.3,41.3,30.12,North,0,0.0,0.0,40,0.00,,,0.00,VWS V13.01,2014-01-18 19:56:00,
2014-01-18 14:01:00,66.3,41.9,30.12,North,0,0.0,0.0,41,0.00,,,0.00,VWS V13.01,2014-01-18 20:01:00,
2014-01-18 14:06:00,66.6,41.6,30.09,North,0,0.0,0.0,40,0.00,,,0.00,VWS V13.01,2014-01-18 20:06:00,
2014-01-18 14:11:00,66.8,41.8,30.09,North,0,0.0,0.0,40,0.00,,,0.00,VWS V13.01,2014-01-18 20:11:00,
2014-01-18 14:16:00,67.0,41.9,30.09,North,0,0.0,0.0,40,0.00,,,0.00,VWS V13.01,2014-01-18 20:16:00,
2014-01-18 14:21:00,67.2,42.1,30.09,North,0,0.0,0.0,40,0.00,,,0.00,VWS V13.01,2014-01-18 20:21:00,
2014-01-18 14:26:00,67.0,41.2,30.09,North,0,0.0,0.0,39,0.00,,,0.00,VWS V13.01,2014-01-18 20:26:00,
2014-01-18 14:31:00,67.2,42.1,30.09,North,0,0.0,0.0,40,0.00,,,0.00,VWS V13.01,2014-01-18 20:31:00,
2014-01-18 14:36:00,67.2,41.4,30.09,North,0,0.0,0.0,39,0.00,,,0.00,VWS V13.01,2014-01-18 20:36:00,
2014-01-18 14:41:00,67.2,42.1,30.09,North,0,0.0,0.0,40,0.00,,,0.00,VWS V13.01,2014-01-18 20:41:00,
2014-01-18 14:46:00,67.0,41.2,30.09,North,0,0.0,0.0,39,0.00,,,0.00,VWS V13.01,2014-01-18 20:46:00,
2014-01-18 14:51:00,66.6,42.2,30.09,North,0,0.0,0.0,41,0.00,,,0.00,VWS V13.01,2014-01-18 20:51:00,
2014-01-18 14:56:00,66.5,42.1,30.09,North,0,0.0,0.0,41,0.00,,,0.00,VWS V13.01,2014-01-18 20:56:00,
2014-01-18 15:01:00,66.5,42.1,30.09,North,0,0.0,0.0,41,0.00,,,0.00,VWS V13.01,2014-01-18 21:01:00,
2014-01-18 15:07:00,66.3,41.9,30.09,North,0,0.0,0.0,41,0.00,,,0.00,VWS V13.01,2014-01-18 21:07:00,
2014-01-18 15:12:00,66.3,41.9,30.09,North,0,0.0,0.0,41,0.00,,,0.00,VWS V13.01,2014-01-18 21:12:00,
2014-01-18 15:17:00,66.3,42.5,30.09,North,0,0.0,0.0,42,0.00,,,0.00,VWS V13.01,2014-01-18 21:17:00,
2014-01-18 15:22:00,66.6,42.8,30.09,North,0,0.0,0.0,42,0.00,,,0.00,VWS V13.01,2014-01-18 21:22:00,
2014-01-18 15:27:00,66.8,43.6,30.09,North,0,0.0,0.0,43,0.00,,,0.00,VWS V13.01,2014-01-18 21:27:00,
2014-01-18 15:32:00,66.6,43.5,30.09,North,0,0.0,0.0,43,0.00,,,0.00,VWS V13.01,2014-01-18 21:32:00,
2014-01-18 15:37:00,66.3,43.1,30.09,North,0,0.0,0.0,43,0.00,,,0.00,VWS V13.01,2014-01-18 21:37:00,
2014-01-18 15:42:00,65.9,42.8,30.09,North,0,0.0,0.0,43,0.00,,,0.00,VWS V13.01,2014-01-18 21:42:00,
2014-01-18 15:47:00,65.7,42.7,30.06,North,0,0.0,0.0,43,0.00,,,0.00,VWS V13.01,2014-01-18 21:47:00,
2014-01-18 15:52:00,65.9,42.8,30.06,North,0,0.0,0.0,43,0.00,,,0.00,VWS V13.01,2014-01-18 21:52:00,
2014-01-18 15:57:00,65.9,43.4,30.06,North,0,0.0,0.0,44,0.00,,,0.00,VWS V13.01,2014-01-18 21:57:00,
2014-01-18 16:02:00,66.3,43.7,30.06,North,0,0.0,0.0,44,0.00,,,0.00,VWS V13.01,2014-01-18 22:02:00,
2014-01-18 16:07:00,66.5,43.3,30.09,North,0,0.0,0.0,43,0.00,,,0.00,VWS V13.01,2014-01-18 22:07:00,
2014-01-18 16:12:00,66.5,43.3,30.09,North,0,0.0,0.0,43,0.00,,,0.00,VWS V13.01,2014-01-18 22:12:00,
2014-01-18 16:17:00,66.6,44.1,30.09,North,0,0.0,0.0,44,0.00,,,0.00,VWS V13.01,2014-01-18 22:17:00,
2014-01-18 16:22:00,66.5,43.9,30.09,North,0,0.0,0.0,44,0.00,,,0.00,VWS V13.01,2014-01-18 22:22:00,
2014-01-18 16:27:00,66.1,43.6,30.09,North,0,0.0,0.0,44,0.00,,,0.00,VWS V13.01,2014-01-18 22:27:00,
2014-01-18 16:32:00,65.6,43.1,30.09,North,0,0.0,0.0,44,0.00,,,0.00,VWS V13.01,2014-01-18 22:32:00,
2014-01-18 16:37:00,65.4,42.9,30.09,North,0,0.0,0.0,44,0.00,,,0.00,VWS V13.01,2014-01-18 22:37:00,
2014-01-18 16:42:00,65.2,43.3,30.09,North,0,0.0,0.0,45,0.00,,,0.00,VWS V13.01,2014-01-18 22:42:00,
2014-01-18 16:47:00,65.2,43.3,30.06,North,0,0.0,0.0,45,0.00,,,0.00,VWS V13.01,2014-01-18 22:47:00,
2014-01-18 16:52:00,65.2,43.3,30.06,South,170,3.1,5.4,45,0.00,,,0.00,VWS V13.01,2014-01-18 22:52:00,
2014-01-18 16:57:00,65.0,43.8,30.06,SSE,168,3.1,3.1,46,0.00,,,0.00,VWS V13.01,2014-01-18 22:57:00,
2014-01-18 17:02:00,64.8,44.2,30.06,SSE,168,3.1,3.1,47,0.00,,,0.00,VWS V13.01,2014-01-18 23:02:00,
2014-01-18 17:07:00,64.8,44.2,30.06,SSE,168,3.1,3.1,47,0.00,,,0.00,VWS V13.01,2014-01-18 23:07:00,
2014-01-18 17:12:00,64.7,44.0,30.06,SSE,168,3.1,3.1,47,0.00,,,0.00,VWS V13.01,2014-01-18 23:12:00,
2014-01-18 17:17:00,64.7,44.0,30.06,SSE,168,3.1,3.1,47,0.00,,,0.00,VWS V13.01,2014-01-18 23:17:00,
2014-01-18 17:22:00,64.5,44.4,30.06,SSE,168,3.1,3.1,48,0.00,,,0.00,VWS V13.01,2014-01-18 23:22:00,
2014-01-18 17:27:00,64.1,44.6,30.06,SSE,168,3.1,3.1,49,0.00,,,0.00,VWS V13.01,2014-01-18 23:27:00,
2014-01-18 17:32:00,63.9,44.4,30.06,SSE,168,3.1,3.1,49,0.00,,,0.00,VWS V13.01,2014-01-18 23:32:00,
2014-01-18 17:37:00,63.8,44.8,30.06,SSE,168,3.1,3.1,50,0.00,,,0.00,VWS V13.01,2014-01-18 23:37:00,
2014-01-18 17:42:00,63.8,44.8,30.06,SSE,168,3.1,3.1,50,0.00,,,0.00,VWS V13.01,2014-01-18 23:42:00,
2014-01-18 17:47:00,63.6,44.6,30.06,SSE,168,3.1,3.1,50,0.00,,,0.00,VWS V13.01,2014-01-18 23:47:00,
2014-01-18 17:52:00,63.4,45.0,30.06,SSE,168,3.1,3.1,51,0.00,,,0.00,VWS V13.01,2014-01-18 23:52:00,
2014-01-18 17:57:00,63.4,45.0,30.06,SSE,168,3.1,3.1,51,0.00,,,0.00,VWS V13.01,2014-01-18 23:57:00,
2014-01-18 18:13:00,63.0,46.2,30.06,North,0,0.0,0.0,54,0.00,,,0.00,VWS V13.01,2014-01-19 00:13:00,
2014-01-18 18:18:00,63.0,46.2,30.06,North,0,0.0,0.0,54,0.00,,,0.00,VWS V13.01,2014-01-19 00:18:00,
2014-01-18 18:23:00,62.9,46.0,30.06,North,0,0.0,0.0,54,0.00,,,0.00,VWS V13.01,2014-01-19 00:23:00,
2014-01-18 18:28:00,62.9,46.0,30.06,North,0,0.0,0.0,54,0.00,,,0.00,VWS V13.01,2014-01-19 00:28:00,
2014-01-18 18:33:00,62.9,46.0,30.06,North,0,0.0,0.0,54,0.00,,,0.00,VWS V13.01,2014-01-19 00:33:00,
2014-01-18 18:38:00,62.7,45.8,30.06,North,0,0.0,0.0,54,0.00,,,0.00,VWS V13.01,2014-01-19 00:38:00,
2014-01-18 18:43:00,62.7,45.8,30.06,North,0,0.0,0.0,54,0.00,,,0.00,VWS V13.01,2014-01-19 00:43:00,
2014-01-18 18:48:00,62.5,45.7,30.03,North,0,0.0,0.0,54,0.00,,,0.00,VWS V13.01,2014-01-19 00:48:00,
2014-01-18 18:53:00,62.3,46.0,30.03,North,0,0.0,0.0,55,0.00,,,0.00,VWS V13.01,2014-01-19 00:53:00,
2014-01-18 18:58:00,62.1,45.8,30.03,North,0,0.0,0.0,55,0.00,,,0.00,VWS V13.01,2014-01-19 00:58:00,
2014-01-18 19:03:00,62.1,45.8,30.03,North,0,0.0,0.0,55,0.00,,,0.00,VWS V13.01,2014-01-19 01:03:00,
2014-01-18 19:08:00,62.0,46.1,30.03,North,0,0.0,0.0,56,0.00,,,0.00,VWS V13.01,2014-01-19 01:08:00,
2014-01-18 19:13:00,61.8,45.9,30.03,North,0,0.0,0.0,56,0.00,,,0.00,VWS V13.01,2014-01-19 01:13:00,
2014-01-18 19:18:00,61.8,45.9,30.03,North,0,0.0,0.0,56,0.00,,,0.00,VWS V13.01,2014-01-19 01:18:00,
2014-01-18 19:23:00,61.6,45.8,30.03,North,0,0.0,0.0,56,0.00,,,0.00,VWS V13.01,2014-01-19 01:23:00,
2014-01-18 19:28:00,61.6,45.8,30.03,North,0,0.0,0.0,56,0.00,,,0.00,VWS V13.01,2014-01-19 01:28:00,
2014-01-18 19:33:00,61.4,46.1,30.03,North,0,0.0,0.0,57,0.00,,,0.00,VWS V13.01,2014-01-19 01:33:00,
2014-01-18 19:38:00,61.2,46.4,30.03,North,0,0.0,0.0,58,0.00,,,0.00,VWS V13.01,2014-01-19 01:38:00,
2014-01-18 19:43:00,61.2,46.4,30.03,North,0,0.0,0.0,58,0.00,,,0.00,VWS V13.01,2014-01-19 01:43:00,
2014-01-18 19:48:00,60.9,46.5,30.03,North,0,0.0,0.0,59,0.00,,,0.00,VWS V13.01,2014-01-19 01:48:00,
2014-01-18 19:53:00,60.7,46.8,30.03,North,0,0.0,0.0,60,0.00,,,0.00,VWS V13.01,2014-01-19 01:53:00,
2014-01-18 19:58:00,60.5,46.6,30.03,North,0,0.0,0.0,60,0.00,,,0.00,VWS V13.01,2014-01-19 01:58:00,
2014-01-18 20:03:00,60.3,46.8,30.03,North,0,0.0,0.0,61,0.00,,,0.00,VWS V13.01,2014-01-19 02:03:00,
2014-01-18 20:08:00,60.3,46.8,30.03,North,0,0.0,0.0,61,0.00,,,0.00,VWS V13.01,2014-01-19 02:08:00,
2014-01-18 20:13:00,60.2,47.1,30.03,North,0,0.0,0.0,62,0.00,,,0.00,VWS V13.01,2014-01-19 02:13:00,
2014-01-18 20:18:00,60.2,47.1,30.03,North,0,0.0,0.0,62,0.00,,,0.00,VWS V13.01,2014-01-19 02:18:00,
2014-01-18 20:23:00,60.2,47.5,30.03,North,0,0.0,0.0,63,0.00,,,0.00,VWS V13.01,2014-01-19 02:23:00,
2014-01-18 20:28:00,60.2,47.5,30.03,North,0,0.0,0.0,63,0.00,,,0.00,VWS V13.01,2014-01-19 02:28:00,
2014-01-18 20:33:00,60.2,47.5,30.03,North,0,0.0,0.0,63,0.00,,,0.00,VWS V13.01,2014-01-19 02:33:00,
2014-01-18 20:38:00,60.0,47.4,30.03,North,0,0.0,0.0,63,0.00,,,0.00,VWS V13.01,2014-01-19 02:38:00,
2014-01-18 20:43:00,60.0,47.4,30.03,North,0,0.0,0.0,63,0.00,,,0.00,VWS V13.01,2014-01-19 02:43:00,
2014-01-18 20:48:00,60.0,47.8,30.03,North,0,0.0,0.0,64,0.00,,,0.00,VWS V13.01,2014-01-19 02:48:00,
2014-01-18 20:53:00,60.0,47.8,30.03,North,0,0.0,0.0,64,0.00,,,0.00,VWS V13.01,2014-01-19 02:53:00,
2014-01-18 20:58:00,60.0,47.8,30.03,North,0,0.0,0.0,64,0.00,,,0.00,VWS V13.01,2014-01-19 02:58:00,
2014-01-18 21:03:00,59.8,47.6,30.06,North,0,0.0,0.0,64,0.00,,,0.00,VWS V13.01,2014-01-19 03:03:00,
2014-01-18 21:08:00,59.6,47.8,30.06,North,0,0.0,0.0,65,0.00,,,0.00,VWS V13.01,2014-01-19 03:08:00,
2014-01-18 21:13:00,59.4,47.7,30.06,North,0,0.0,0.0,65,0.00,,,0.00,VWS V13.01,2014-01-19 03:13:00,
2014-01-18 21:18:00,59.3,47.9,30.06,North,0,0.0,0.0,66,0.00,,,0.00,VWS V13.01,2014-01-19 03:18:00,
2014-01-18 21:23:00,59.1,48.2,30.06,North,0,0.0,0.0,67,0.00,,,0.00,VWS V13.01,2014-01-19 03:23:00,
2014-01-18 21:28:00,58.7,47.8,30.06,North,0,0.0,0.0,67,0.00,,,0.00,VWS V13.01,2014-01-19 03:28:00,
2014-01-18 21:33:00,58.5,48.0,30.06,North,0,0.0,0.0,68,0.00,,,0.00,VWS V13.01,2014-01-19 03:33:00,
2014-01-18 21:39:00,58.4,48.2,30.06,North,0,0.0,0.0,69,0.00,,,0.00,VWS V13.01,2014-01-19 03:39:00,
2014-01-18 21:44:00,58.2,48.5,30.06,North,0,0.0,0.0,70,0.00,,,0.00,VWS V13.01,2014-01-19 03:44:00,
2014-01-18 21:49:00,58.2,48.8,30.06,North,0,0.0,0.0,71,0.00,,,0.00,VWS V13.01,2014-01-19 03:49:00,
2014-01-18 21:54:00,58.2,48.8,30.06,North,0,0.0,0.0,71,0.00,,,0.00,VWS V13.01,2014-01-19 03:54:00,
2014-01-18 21:59:00,58.0,49.0,30.06,North,0,0.0,0.0,72,0.00,,,0.00,VWS V13.01,2014-01-19 03:59:00,
2014-01-18 22:04:00,58.0,49.0,30.06,North,0,0.0,0.0,72,0.00,,,0.00,VWS V13.01,2014-01-19 04:04:00,
2014-01-18 22:09:00,57.8,49.2,30.06,North,0,0.0,0.0,73,0.00,,,0.00,VWS V13.01,2014-01-19 04:09:00,
2014-01-18 22:14:00,57.8,49.6,30.06,North,0,0.0,0.0,74,0.00,,,0.00,VWS V13.01,2014-01-19 04:14:00,
2014-01-18 22:19:00,57.6,49.4,30.06,North,0,0.0,0.0,74,0.00,,,0.00,VWS V13.01,2014-01-19 04:19:00,
2014-01-18 22:24:00,57.5,49.2,30.06,North,0,0.0,0.0,74,0.00,,,0.00,VWS V13.01,2014-01-19 04:24:00,
2014-01-18 22:29:00,57.5,49.6,30.06,North,0,0.0,0.0,75,0.00,,,0.00,VWS V13.01,2014-01-19 04:29:00,
2014-01-18 22:34:00,57.3,49.4,30.06,North,0,0.0,0.0,75,0.00,,,0.00,VWS V13.01,2014-01-19 04:34:00,
2014-01-18 22:39:00,57.1,49.3,30.06,North,0,0.0,0.0,75,0.00,,,0.00,VWS V13.01,2014-01-19 04:39:00,
2014-01-18 22:44:00,56.9,49.1,30.06,North,0,0.0,0.0,75,0.00,,,0.00,VWS V13.01,2014-01-19 04:44:00,
2014-01-18 22:49:00,56.9,49.4,30.06,North,0,0.0,0.0,76,0.00,,,0.00,VWS V13.01,2014-01-19 04:49:00,
2014-01-18 22:54:00,56.9,49.4,30.06,North,0,0.0,0.0,76,0.00,,,0.00,VWS V13.01,2014-01-19 04:54:00,
2014-01-18 22:59:00,56.7,49.3,30.06,North,0,0.0,0.0,76,0.00,,,0.00,VWS V13.01,2014-01-19 04:59:00,
2014-01-18 23:01:00,56.7,49.3,30.06,North,0,0.0,0.0,76,0.00,,,0.00,VWS V13.01,2014-01-19 05:01:00,
2014-01-18 23:02:00,56.6,49.1,30.06,North,0,0.0,0.0,76,0.00,,,0.00,VWS V13.01,2014-01-19 05:02:00,
2014-01-18 23:07:00,56.4,48.9,30.06,North,0,0.0,0.0,76,0.00,,,0.00,VWS V13.01,2014-01-19 05:07:00,
2014-01-18 23:12:00,56.2,48.8,30.06,North,0,0.0,0.0,76,0.00,,,0.00,VWS V13.01,2014-01-19 05:12:00,
2014-01-18 23:17:00,56.2,49.1,30.03,North,0,0.0,0.0,77,0.00,,,0.00,VWS V13.01,2014-01-19 05:17:00,
2014-01-18 23:22:00,56.0,48.9,30.03,North,0,0.0,0.0,77,0.00,,,0.00,VWS V13.01,2014-01-19 05:22:00,
2014-01-18 23:27:00,55.8,49.1,30.03,North,0,0.0,0.0,78,0.00,,,0.00,VWS V13.01,2014-01-19 05:27:00,
2014-01-18 23:32:00,55.8,49.1,30.03,North,0,0.0,0.0,78,0.00,,,0.00,VWS V13.01,2014-01-19 05:32:00,
2014-01-18 23:37:00,55.8,49.1,30.03,North,0,0.0,0.0,78,0.00,,,0.00,VWS V13.01,2014-01-19 05:37:00,
2014-01-18 23:42:00,55.8,49.4,30.03,North,0,0.0,0.0,79,0.00,,,0.00,VWS V13.01,2014-01-19 05:42:00,
2014-01-18 23:47:00,55.7,49.3,30.03,North,0,0.0,0.0,79,0.00,,,0.00,VWS V13.01,2014-01-19 05:47:00,
2014-01-18 23:52:00,55.7,49.3,30.03,North,0,0.0,0.0,79,0.00,,,0.00,VWS V13.01,2014-01-19 05:52:00,
2014-01-18 23:57:00,55.7,49.6,30.03,North,0,0.0,0.0,80,0.00,,,0.00,VWS V13.01,2014-01-19 05:57:00,